Location: Unspecified
(35.6961°N, 0.0000°E)
Time: 18:38:37
(UTC+00:00)

Vanguard 2 Rocket - Pass Details

Date: 26 May 2019
Orbit: 555 x 3326 km, 32.9° (Epoch: 25 June)

Event Time Altitude Azimuth Distance (km) Brightness Sun altitude
Rises 08:57:20 0° 276° (W) 6,615 10.9 48.3°
Reaches altitude 10° 09:02:21 10° 275° (W) 5,221 10.5 49.3°
Maximum altitude 09:16:03 67° 197° (SSW) 1,741 9.1 52.0°
Drops below altitude 10° 09:23:34 10° 116° (ESE) 2,994 10.3 53.5°
Sets 09:25:42 0° 113° (ESE) 3,704 10.6 54.0°
